Time,TemperatureF,DewpointF,PressureIn,WindDirection,WindDirectionDegrees,WindSpeedMPH,WindSpeedGustMPH,Humidity,HourlyPrecipIn,Conditions,Clouds,dailyrainin,SoftwareType,DateUTC
2013-02-26 00:04:00,38.7,32.7,30.34,East,90,2.2,3.1,79,0.00,,,0.00,pywws,2013-02-26 08:04:00,
2013-02-26 00:10:00,38.7,32.7,30.33,North,-999,0.0,0.0,79,0.00,,,0.00,pywws,2013-02-26 08:10:00,
2013-02-26 00:15:00,38.8,32.9,30.33,East,90,0.7,1.6,79,0.00,,,0.00,pywws,2013-02-26 08:15:00,
2013-02-26 00:21:00,38.7,32.7,30.33,East,90,0.7,1.6,79,0.00,,,0.00,pywws,2013-02-26 08:21:00,
2013-02-26 00:27:00,38.5,32.5,30.33,North,-999,0.0,0.0,79,0.00,,,0.00,pywws,2013-02-26 08:27:00,
2013-02-26 00:32:00,38.7,32.7,30.33,North,-999,0.0,0.0,79,0.00,,,0.00,pywws,2013-02-26 08:32:00,
2013-02-26 00:38:00,38.5,32.9,30.34,SE,135,1.6,3.1,80,0.00,,,0.00,pywws,2013-02-26 08:38:00,
2013-02-26 00:43:00,38.5,32.5,30.34,North,-999,0.0,1.6,79,0.00,,,0.00,pywws,2013-02-26 08:43:00,
2013-02-26 00:49:00,38.5,32.9,30.34,North,-999,0.0,0.7,80,0.00,,,0.00,pywws,2013-02-26 08:49:00,
2013-02-26 00:54:00,38.3,32.7,30.34,North,-999,0.0,0.0,80,0.00,,,0.00,pywws,2013-02-26 08:54:00,
2013-02-26 01:00:00,38.3,32.7,30.34,East,90,0.7,1.6,80,0.00,,,0.00,pywws,2013-02-26 09:00:00,
2013-02-26 01:06:00,38.3,32.7,30.34,North,-999,0.0,0.0,80,0.00,,,0.00,pywws,2013-02-26 09:06:00,
2013-02-26 01:11:00,38.3,32.7,30.34,North,0,0.7,3.1,80,0.00,,,0.00,pywws,2013-02-26 09:11:00,
2013-02-26 01:17:00,38.7,33.0,30.35,South,180,1.6,3.1,80,0.00,,,0.00,pywws,2013-02-26 09:17:00,
2013-02-26 01:22:00,38.7,33.0,30.35,North,-999,0.0,0.0,80,0.00,,,0.00,pywws,2013-02-26 09:22:00,
2013-02-26 01:28:00,38.7,33.0,30.34,North,-999,0.0,0.0,80,0.00,,,0.00,pywws,2013-02-26 09:28:00,
2013-02-26 01:34:00,38.7,33.0,30.35,East,90,0.7,1.6,80,0.00,,,0.00,pywws,2013-02-26 09:34:00,
2013-02-26 01:39:00,38.7,33.0,30.35,North,-999,0.0,0.0,80,0.00,,,0.00,pywws,2013-02-26 09:39:00,
2013-02-26 01:45:00,38.7,33.0,30.35,North,-999,0.0,0.0,80,0.00,,,0.00,pywws,2013-02-26 09:45:00,
2013-02-26 01:51:00,38.8,33.2,30.35,North,-999,0.0,0.0,80,0.00,,,0.00,pywws,2013-02-26 09:51:00,
2013-02-26 01:56:00,38.8,33.2,30.35,North,-999,0.0,0.7,80,0.00,,,0.00,pywws,2013-02-26 09:56:00,
2013-02-26 02:02:00,38.8,33.2,30.35,North,-999,0.0,0.0,80,0.00,,,0.00,pywws,2013-02-26 10:02:00,
2013-02-26 02:07:00,39.4,33.1,30.35,South,180,0.7,1.6,78,0.00,,,0.00,pywws,2013-02-26 10:07:00,
2013-02-26 02:13:00,39.0,33.4,30.35,South,180,0.7,1.6,80,0.00,,,0.00,pywws,2013-02-26 10:13:00,
2013-02-26 02:18:00,39.0,33.4,30.35,South,180,0.7,1.6,80,0.00,,,0.00,pywws,2013-02-26 10:18:00,
2013-02-26 02:24:00,39.0,33.4,30.35,North,-999,0.0,0.0,80,0.00,,,0.00,pywws,2013-02-26 10:24:00,
2013-02-26 02:30:00,39.0,33.4,30.35,South,180,0.7,1.6,80,0.00,,,0.00,pywws,2013-02-26 10:30:00,
2013-02-26 02:35:00,38.8,33.2,30.35,East,90,0.7,2.2,80,0.00,,,0.00,pywws,2013-02-26 10:35:00,
2013-02-26 02:41:00,38.8,33.2,30.35,North,-999,0.0,0.0,80,0.00,,,0.00,pywws,2013-02-26 10:41:00,
2013-02-26 02:46:00,38.7,33.0,30.35,North,-999,0.0,0.0,80,0.00,,,0.00,pywws,2013-02-26 10:46:00,
2013-02-26 02:52:00,39.0,33.4,30.35,South,180,1.6,2.2,80,0.00,,,0.00,pywws,2013-02-26 10:52:00,
2013-02-26 02:58:00,39.0,33.4,30.35,North,-999,0.0,0.0,80,0.00,,,0.00,pywws,2013-02-26 10:58:00,
2013-02-26 03:03:00,39.2,32.9,30.35,North,-999,0.0,0.0,78,0.00,,,0.00,pywws,2013-02-26 11:03:00,
2013-02-26 03:09:00,39.0,33.1,30.35,North,-999,0.0,1.6,79,0.00,,,0.00,pywws,2013-02-26 11:09:00,
2013-02-26 03:14:00,39.2,32.9,30.35,East,90,0.7,2.2,78,0.00,,,0.00,pywws,2013-02-26 11:14:00,
2013-02-26 03:20:00,39.2,32.9,30.35,North,0,3.1,4.5,78,0.00,,,0.00,pywws,2013-02-26 11:20:00,
2013-02-26 03:26:00,39.4,32.8,30.35,South,180,0.7,1.6,77,0.00,,,0.00,pywws,2013-02-26 11:26:00,
2013-02-26 03:31:00,39.0,33.1,30.35,North,-999,0.0,1.6,79,0.00,,,0.00,pywws,2013-02-26 11:31:00,
2013-02-26 03:37:00,39.7,33.5,30.35,South,180,1.6,2.2,78,0.00,,,0.00,pywws,2013-02-26 11:37:00,
2013-02-26 03:42:00,39.4,32.8,30.36,East,90,0.7,2.2,77,0.00,,,0.00,pywws,2013-02-26 11:42:00,
2013-02-26 03:48:00,39.2,32.6,30.35,SE,135,0.7,1.6,77,0.00,,,0.00,pywws,2013-02-26 11:48:00,
2013-02-26 03:54:00,39.6,33.0,30.35,North,-999,0.0,1.6,77,0.00,,,0.00,pywws,2013-02-26 11:54:00,
2013-02-26 03:59:00,39.0,33.1,30.35,South,180,1.6,3.1,79,0.00,,,0.00,pywws,2013-02-26 11:59:00,
2013-02-26 04:05:00,39.0,33.1,30.36,South,180,1.6,3.1,79,0.00,,,0.00,pywws,2013-02-26 12:05:00,
2013-02-26 04:10:00,39.4,32.8,30.35,North,-999,0.0,0.0,77,0.00,,,0.00,pywws,2013-02-26 12:10:00,
2013-02-26 04:16:00,39.2,32.6,30.35,East,90,0.7,1.6,77,0.00,,,0.00,pywws,2013-02-26 12:16:00,
2013-02-26 04:22:00,39.0,32.8,30.35,North,-999,0.0,0.0,78,0.00,,,0.00,pywws,2013-02-26 12:22:00,
2013-02-26 04:27:00,39.0,33.1,30.35,North,-999,0.0,0.7,79,0.00,,,0.00,pywws,2013-02-26 12:27:00,
2013-02-26 04:33:00,39.2,32.9,30.35,South,180,1.6,2.2,78,0.00,,,0.00,pywws,2013-02-26 12:33:00,
2013-02-26 04:38:00,39.4,32.8,30.35,SE,135,0.7,1.6,77,0.00,,,0.00,pywws,2013-02-26 12:38:00,
2013-02-26 04:44:00,39.0,32.8,30.35,NW,315,1.6,3.8,78,0.00,,,0.00,pywws,2013-02-26 12:44:00,
2013-02-26 04:50:00,39.2,32.6,30.36,South,180,0.7,2.2,77,0.00,,,0.00,pywws,2013-02-26 12:50:00,
2013-02-26 04:55:00,40.5,33.5,30.36,South,180,0.7,1.6,76,0.00,,,0.00,pywws,2013-02-26 12:55:00,
2013-02-26 05:01:00,39.9,33.0,30.36,South,180,1.6,2.2,76,0.00,,,0.00,pywws,2013-02-26 13:01:00,
2013-02-26 05:06:00,39.7,32.8,30.36,North,-999,0.0,0.0,76,0.00,,,0.00,pywws,2013-02-26 13:06:00,
2013-02-26 05:12:00,39.6,33.0,30.36,North,0,3.8,6.0,77,0.00,,,0.00,pywws,2013-02-26 13:12:00,
2013-02-26 05:18:00,39.4,32.8,30.36,North,-999,0.0,0.0,77,0.00,,,0.00,pywws,2013-02-26 13:18:00,
2013-02-26 05:23:00,40.1,33.2,30.36,East,90,0.7,2.2,76,0.00,,,0.00,pywws,2013-02-26 13:23:00,
2013-02-26 05:29:00,39.9,33.3,30.37,South,180,0.7,2.2,77,0.00,,,0.00,pywws,2013-02-26 13:29:00,
2013-02-26 05:34:00,39.6,33.0,30.37,North,0,1.6,4.5,77,0.00,,,0.00,pywws,2013-02-26 13:34:00,
2013-02-26 05:40:00,39.4,33.1,30.36,North,-999,0.0,0.7,78,0.00,,,0.00,pywws,2013-02-26 13:40:00,
2013-02-26 05:46:00,39.2,33.2,30.36,North,-999,0.0,0.0,79,0.00,,,0.00,pywws,2013-02-26 13:46:00,
2013-02-26 05:51:00,39.9,33.6,30.36,NE,45,1.6,2.2,78,0.00,,,0.00,pywws,2013-02-26 13:51:00,
2013-02-26 05:57:00,39.2,32.9,30.37,East,90,1.6,2.2,78,0.00,,,0.00,pywws,2013-02-26 13:57:00,
2013-02-26 06:02:00,39.0,33.4,30.37,NE,45,2.2,3.8,80,0.00,,,0.00,pywws,2013-02-26 14:02:00,
2013-02-26 06:08:00,38.3,33.3,30.37,East,90,0.7,1.6,82,0.00,,,0.00,pywws,2013-02-26 14:08:00,
2013-02-26 06:14:00,37.9,33.5,30.37,North,-999,0.0,0.0,84,0.00,,,0.00,pywws,2013-02-26 14:14:00,
2013-02-26 06:19:00,37.8,33.7,30.37,North,-999,0.0,0.0,85,0.00,,,0.00,pywws,2013-02-26 14:19:00,
2013-02-26 06:25:00,37.8,33.7,30.37,NE,45,0.7,3.1,85,0.00,,,0.00,pywws,2013-02-26 14:25:00,
2013-02-26 06:30:00,37.8,33.7,30.37,North,-999,0.0,0.0,85,0.00,,,0.00,pywws,2013-02-26 14:30:00,
2013-02-26 06:36:00,37.8,33.7,30.37,North,-999,0.0,0.0,85,0.00,,,0.00,pywws,2013-02-26 14:36:00,
2013-02-26 06:42:00,37.8,34.0,30.37,North,-999,0.0,2.2,86,0.00,,,0.00,pywws,2013-02-26 14:42:00,
2013-02-26 06:47:00,37.8,34.0,30.37,North,-999,0.0,0.0,86,0.00,,,0.00,pywws,2013-02-26 14:47:00,
2013-02-26 06:53:00,37.8,34.0,30.37,North,-999,0.0,0.0,86,0.00,,,0.00,pywws,2013-02-26 14:53:00,
2013-02-26 06:58:00,37.8,34.0,30.37,North,-999,0.0,0.0,86,0.00,,,0.00,pywws,2013-02-26 14:58:00,
2013-02-26 07:04:00,37.8,34.0,30.37,North,-999,0.0,0.0,86,0.00,,,0.00,pywws,2013-02-26 15:04:00,
2013-02-26 07:10:00,37.8,34.0,30.37,North,-999,0.0,0.0,86,0.00,,,0.00,pywws,2013-02-26 15:10:00,
2013-02-26 07:15:00,38.5,34.7,30.37,South,180,2.2,3.1,86,0.00,,,0.00,pywws,2013-02-26 15:15:00,
2013-02-26 07:21:00,38.1,34.0,30.37,North,-999,0.0,0.0,85,0.00,,,0.00,pywws,2013-02-26 15:21:00,
2013-02-26 07:27:00,37.9,33.8,30.37,North,-999,0.0,0.0,85,0.00,,,0.00,pywws,2013-02-26 15:27:00,
2013-02-26 07:32:00,37.9,33.8,30.37,South,180,0.7,2.2,85,0.00,,,0.00,pywws,2013-02-26 15:32:00,
2013-02-26 07:38:00,38.8,34.4,30.37,East,90,0.7,2.2,84,0.00,,,0.00,pywws,2013-02-26 15:38:00,
2013-02-26 07:43:00,38.7,34.3,30.37,North,-999,0.0,0.0,84,0.00,,,0.00,pywws,2013-02-26 15:43:00,
2013-02-26 07:49:00,39.2,33.9,30.37,North,-999,0.0,0.0,81,0.00,,,0.00,pywws,2013-02-26 15:49:00,
2013-02-26 07:54:00,39.4,34.0,30.37,SW,225,1.6,3.8,81,0.00,,,0.00,pywws,2013-02-26 15:54:00,
2013-02-26 08:00:00,39.6,33.9,30.37,East,90,0.7,1.6,80,0.00,,,0.00,pywws,2013-02-26 16:00:00,
2013-02-26 08:06:00,40.8,33.5,30.37,South,180,0.7,1.6,75,0.00,,,0.00,pywws,2013-02-26 16:06:00,
2013-02-26 08:11:00,40.3,33.3,30.37,West,270,0.7,1.6,76,0.00,,,0.00,pywws,2013-02-26 16:11:00,
2013-02-26 08:17:00,39.7,33.1,30.37,North,0,0.7,2.2,77,0.00,,,0.00,pywws,2013-02-26 16:17:00,
2013-02-26 08:22:00,39.7,33.1,30.37,North,-999,0.0,0.7,77,0.00,,,0.00,pywws,2013-02-26 16:22:00,
2013-02-26 08:28:00,40.1,33.5,30.37,North,-999,0.0,0.0,77,0.00,,,0.00,pywws,2013-02-26 16:28:00,
2013-02-26 08:34:00,39.9,33.6,30.38,North,-999,0.0,1.6,78,0.00,,,0.00,pywws,2013-02-26 16:34:00,
2013-02-26 08:39:00,40.1,33.5,30.37,North,-999,0.0,0.0,77,0.00,,,0.00,pywws,2013-02-26 16:39:00,
2013-02-26 08:45:00,39.9,33.3,30.38,North,-999,0.0,0.0,77,0.00,,,0.00,pywws,2013-02-26 16:45:00,
2013-02-26 08:50:00,40.3,33.3,30.38,North,-999,0.0,0.0,76,0.00,,,0.00,pywws,2013-02-26 16:50:00,
2013-02-26 08:56:00,40.3,33.3,30.38,North,-999,0.0,0.0,76,0.00,,,0.00,pywws,2013-02-26 16:56:00,
2013-02-26 09:02:00,40.6,34.0,30.38,North,-999,0.0,0.0,77,0.00,,,0.00,pywws,2013-02-26 17:02:00,
2013-02-26 09:07:00,41.0,34.0,30.38,North,-999,0.0,0.0,76,0.00,,,0.00,pywws,2013-02-26 17:07:00,
2013-02-26 09:13:00,41.2,34.2,30.37,West,270,0.7,1.6,76,0.00,,,0.00,pywws,2013-02-26 17:13:00,
2013-02-26 09:18:00,41.5,34.2,30.37,North,-999,0.0,0.0,75,0.00,,,0.00,pywws,2013-02-26 17:18:00,
2013-02-26 09:24:00,41.7,34.4,30.37,North,-999,0.0,0.0,75,0.00,,,0.00,pywws,2013-02-26 17:24:00,
2013-02-26 09:30:00,42.1,34.7,30.37,North,-999,0.0,0.0,75,0.00,,,0.00,pywws,2013-02-26 17:30:00,
2013-02-26 09:35:00,41.9,33.9,30.37,West,270,1.6,2.2,73,0.00,,,0.00,pywws,2013-02-26 17:35:00,
2013-02-26 09:41:00,42.1,33.4,30.37,North,-999,0.0,0.0,71,0.00,,,0.00,pywws,2013-02-26 17:41:00,
2013-02-26 09:46:00,42.1,34.4,30.37,North,-999,0.0,0.0,74,0.00,,,0.00,pywws,2013-02-26 17:46:00,
2013-02-26 09:52:00,42.1,32.7,30.36,South,180,0.7,1.6,69,0.00,,,0.00,pywws,2013-02-26 17:52:00,
2013-02-26 09:58:00,42.1,33.4,30.36,North,-999,0.0,0.0,71,0.00,,,0.00,pywws,2013-02-26 17:58:00,
2013-02-26 10:03:00,42.6,33.2,30.36,North,-999,0.0,0.0,69,0.00,,,0.00,pywws,2013-02-26 18:03:00,
2013-02-26 10:09:00,43.2,33.0,30.35,North,-999,0.0,1.6,67,0.00,,,0.00,pywws,2013-02-26 18:09:00,
2013-02-26 10:14:00,43.3,32.8,30.35,North,0,2.2,4.5,66,0.00,,,0.00,pywws,2013-02-26 18:14:00,
2013-02-26 10:20:00,43.5,32.5,30.35,West,270,0.7,3.8,65,0.00,,,0.00,pywws,2013-02-26 18:20:00,
2013-02-26 10:26:00,43.7,32.3,30.35,North,-999,0.0,0.7,64,0.00,,,0.00,pywws,2013-02-26 18:26:00,
2013-02-26 10:31:00,43.9,32.9,30.35,West,270,1.6,3.1,65,0.00,,,0.00,pywws,2013-02-26 18:31:00,
2013-02-26 10:37:00,44.4,33.4,30.35,North,-999,0.0,0.0,65,0.00,,,0.00,pywws,2013-02-26 18:37:00,
2013-02-26 10:43:00,44.2,33.2,30.35,North,-999,0.0,0.0,65,0.00,,,0.00,pywws,2013-02-26 18:43:00,
2013-02-26 10:48:00,44.6,32.8,30.34,North,-999,0.0,0.0,63,0.00,,,0.00,pywws,2013-02-26 18:48:00,
2013-02-26 10:54:00,44.6,32.8,30.34,West,270,0.7,1.6,63,0.00,,,0.00,pywws,2013-02-26 18:54:00,
2013-02-26 10:59:00,44.6,32.4,30.34,West,270,0.7,1.6,62,0.00,,,0.00,pywws,2013-02-26 18:59:00,
2013-02-26 11:05:00,45.0,32.7,30.34,West,270,0.7,1.6,62,0.00,,,0.00,pywws,2013-02-26 19:05:00,
2013-02-26 11:10:00,45.3,33.1,30.34,West,270,0.7,1.6,62,0.00,,,0.00,pywws,2013-02-26 19:10:00,
2013-02-26 11:16:00,45.7,33.0,30.33,SE,135,1.6,2.2,61,0.00,,,0.00,pywws,2013-02-26 19:16:00,
2013-02-26 11:22:00,46.0,32.9,30.33,West,270,3.8,6.9,60,0.00,,,0.00,pywws,2013-02-26 19:22:00,
2013-02-26 11:27:00,45.9,31.5,30.32,West,270,1.6,2.2,57,0.00,,,0.00,pywws,2013-02-26 19:27:00,
2013-02-26 11:33:00,45.7,31.3,30.32,North,-999,0.0,1.6,57,0.00,,,0.00,pywws,2013-02-26 19:33:00,
2013-02-26 11:38:00,45.9,32.4,30.32,North,-999,0.0,0.0,59,0.00,,,0.00,pywws,2013-02-26 19:38:00,
2013-02-26 11:44:00,45.3,30.6,30.33,North,-999,0.0,1.6,56,0.00,,,0.00,pywws,2013-02-26 19:44:00,
2013-02-26 11:50:00,45.1,30.4,30.33,North,0,0.7,1.6,56,0.00,,,0.00,pywws,2013-02-26 19:50:00,
2013-02-26 11:55:00,45.1,31.3,30.32,North,-999,0.0,0.0,58,0.00,,,0.00,pywws,2013-02-26 19:55:00,
2013-02-26 12:01:00,45.1,31.3,30.32,North,-999,0.0,0.7,58,0.00,,,0.00,pywws,2013-02-26 20:01:00,
2013-02-26 12:06:00,45.1,31.3,30.32,North,-999,0.0,0.7,58,0.00,,,0.00,pywws,2013-02-26 20:06:00,
2013-02-26 12:12:00,45.7,32.2,30.32,North,-999,0.0,0.7,59,0.00,,,0.00,pywws,2013-02-26 20:12:00,
2013-02-26 12:18:00,45.9,31.9,30.32,North,-999,0.0,0.0,58,0.00,,,0.00,pywws,2013-02-26 20:18:00,
2013-02-26 12:23:00,46.0,31.7,30.32,North,-999,0.0,0.7,57,0.00,,,0.00,pywws,2013-02-26 20:23:00,
2013-02-26 12:29:00,46.4,32.4,30.32,North,-999,0.0,0.0,58,0.00,,,0.00,pywws,2013-02-26 20:29:00,
2013-02-26 12:35:00,46.6,33.0,30.32,North,-999,0.0,0.0,59,0.00,,,0.00,pywws,2013-02-26 20:35:00,
2013-02-26 12:40:00,46.2,31.8,30.31,West,270,0.7,2.2,57,0.00,,,0.00,pywws,2013-02-26 20:40:00,
2013-02-26 12:46:00,46.2,31.0,30.31,North,-999,0.0,1.6,55,0.00,,,0.00,pywws,2013-02-26 20:46:00,
2013-02-26 12:51:00,46.2,31.4,30.31,West,270,0.7,1.6,56,0.00,,,0.00,pywws,2013-02-26 20:51:00,
2013-02-26 12:57:00,46.6,31.7,30.31,North,-999,0.0,0.0,56,0.00,,,0.00,pywws,2013-02-26 20:57:00,
2013-02-26 13:02:00,46.9,32.5,30.31,North,-999,0.0,0.0,57,0.00,,,0.00,pywws,2013-02-26 21:02:00,
2013-02-26 13:08:00,46.6,32.2,30.30,North,-999,0.0,0.0,57,0.00,,,0.00,pywws,2013-02-26 21:08:00,
2013-02-26 13:14:00,46.4,31.6,30.29,North,0,0.7,2.2,56,0.00,,,0.00,pywws,2013-02-26 21:14:00,
2013-02-26 13:19:00,46.8,32.3,30.29,North,-999,0.0,0.0,57,0.00,,,0.00,pywws,2013-02-26 21:19:00,
2013-02-26 13:25:00,46.6,31.7,30.29,North,0,1.6,2.2,56,0.00,,,0.00,pywws,2013-02-26 21:25:00,
2013-02-26 13:30:00,46.9,32.1,30.29,South,180,0.7,3.1,56,0.00,,,0.00,pywws,2013-02-26 21:30:00,
2013-02-26 13:36:00,47.1,32.7,30.29,West,270,0.7,1.6,57,0.00,,,0.00,pywws,2013-02-26 21:36:00,
2013-02-26 13:42:00,47.7,33.2,30.29,North,-999,0.0,1.6,57,0.00,,,0.00,pywws,2013-02-26 21:42:00,
2013-02-26 13:47:00,48.2,32.8,30.28,North,-999,0.0,0.7,55,0.00,,,0.00,pywws,2013-02-26 21:47:00,
2013-02-26 13:53:00,48.2,32.8,30.28,West,270,0.7,1.6,55,0.00,,,0.00,pywws,2013-02-26 21:53:00,
2013-02-26 13:59:00,48.0,32.6,30.27,North,-999,0.0,0.0,55,0.00,,,0.00,pywws,2013-02-26 21:59:00,
2013-02-26 14:04:00,47.8,32.5,30.27,North,-999,0.0,0.0,55,0.00,,,0.00,pywws,2013-02-26 22:04:00,
2013-02-26 14:10:00,47.3,32.4,30.27,West,270,0.7,1.6,56,0.00,,,0.00,pywws,2013-02-26 22:10:00,
2013-02-26 14:15:00,47.1,31.8,30.27,North,-999,0.0,0.0,55,0.00,,,0.00,pywws,2013-02-26 22:15:00,
2013-02-26 14:21:00,47.3,32.4,30.27,West,270,0.7,2.2,56,0.00,,,0.00,pywws,2013-02-26 22:21:00,
2013-02-26 14:26:00,46.9,31.2,30.27,West,270,0.7,1.6,54,0.00,,,0.00,pywws,2013-02-26 22:26:00,
2013-02-26 14:32:00,47.1,31.8,30.27,North,-999,0.0,0.0,55,0.00,,,0.00,pywws,2013-02-26 22:32:00,
2013-02-26 14:38:00,46.8,31.9,30.27,North,-999,0.0,0.0,56,0.00,,,0.00,pywws,2013-02-26 22:38:00,
2013-02-26 14:43:00,46.6,31.7,30.27,North,-999,0.0,0.0,56,0.00,,,0.00,pywws,2013-02-26 22:43:00,
2013-02-26 14:49:00,46.8,31.9,30.27,North,-999,0.0,1.6,56,0.00,,,0.00,pywws,2013-02-26 22:49:00,
2013-02-26 14:54:00,47.1,32.2,30.27,North,-999,0.0,0.0,56,0.00,,,0.00,pywws,2013-02-26 22:54:00,
2013-02-26 15:00:00,47.3,32.4,30.27,North,0,0.7,1.6,56,0.00,,,0.00,pywws,2013-02-26 23:00:00,
2013-02-26 15:06:00,47.3,32.4,30.27,North,-999,0.0,0.0,56,0.00,,,0.00,pywws,2013-02-26 23:06:00,
2013-02-26 15:11:00,47.1,32.2,30.27,North,-999,0.0,0.0,56,0.00,,,0.00,pywws,2013-02-26 23:11:00,
2013-02-26 15:17:00,46.8,31.9,30.27,North,-999,0.0,1.6,56,0.00,,,0.00,pywws,2013-02-26 23:17:00,
2013-02-26 15:22:00,47.1,32.7,30.27,West,270,0.7,2.2,57,0.00,,,0.00,pywws,2013-02-26 23:22:00,
2013-02-26 15:28:00,47.1,32.7,30.26,North,-999,0.0,0.0,57,0.00,,,0.00,pywws,2013-02-26 23:28:00,
2013-02-26 15:34:00,46.8,31.9,30.26,South,180,0.7,2.2,56,0.00,,,0.00,pywws,2013-02-26 23:34:00,
2013-02-26 15:39:00,46.8,31.9,30.27,North,0,0.7,2.2,56,0.00,,,0.00,pywws,2013-02-26 23:39:00,
2013-02-26 15:45:00,46.4,31.6,30.27,North,-999,0.0,0.0,56,0.00,,,0.00,pywws,2013-02-26 23:45:00,
2013-02-26 15:50:00,46.2,32.7,30.27,North,-999,0.0,0.0,59,0.00,,,0.00,pywws,2013-02-26 23:50:00,
2013-02-26 15:56:00,46.2,33.5,30.27,North,-999,0.0,0.0,61,0.00,,,0.00,pywws,2013-02-26 23:56:00,
2013-02-26 16:02:00,46.0,33.4,30.27,South,180,0.7,1.6,61,0.00,,,0.00,pywws,2013-02-27 00:02:00,
2013-02-26 16:07:00,45.9,33.2,30.27,North,-999,0.0,0.0,61,0.00,,,0.00,pywws,2013-02-27 00:07:00,
2013-02-26 16:13:00,45.5,33.2,30.27,North,-999,0.0,0.0,62,0.00,,,0.00,pywws,2013-02-27 00:13:00,
2013-02-26 16:18:00,45.0,32.7,30.26,North,-999,0.0,0.0,62,0.00,,,0.00,pywws,2013-02-27 00:18:00,
2013-02-26 16:24:00,45.0,33.5,30.26,North,-999,0.0,0.0,64,0.00,,,0.00,pywws,2013-02-27 00:24:00,
2013-02-26 16:30:00,45.0,33.5,30.26,North,-999,0.0,0.0,64,0.00,,,0.00,pywws,2013-02-27 00:30:00,
2013-02-26 16:35:00,45.1,33.3,30.26,North,-999,0.0,0.0,63,0.00,,,0.00,pywws,2013-02-27 00:35:00,
2013-02-26 16:41:00,45.0,33.1,30.26,North,-999,0.0,0.0,63,0.00,,,0.00,pywws,2013-02-27 00:41:00,
2013-02-26 16:46:00,45.1,32.9,30.26,East,90,0.7,1.6,62,0.00,,,0.00,pywws,2013-02-27 00:46:00,
2013-02-26 16:52:00,44.8,32.6,30.26,North,-999,0.0,0.0,62,0.00,,,0.00,pywws,2013-02-27 00:52:00,
2013-02-26 16:58:00,44.6,32.0,30.25,South,180,0.7,1.6,61,0.00,,,0.00,pywws,2013-02-27 00:58:00,
2013-02-26 17:03:00,44.2,33.2,30.26,North,-999,0.0,0.0,65,0.00,,,0.00,pywws,2013-02-27 01:03:00,
2013-02-26 17:09:00,44.1,32.7,30.26,North,-999,0.0,0.0,64,0.00,,,0.00,pywws,2013-02-27 01:09:00,
2013-02-26 17:14:00,43.9,32.5,30.26,North,-999,0.0,2.2,64,0.00,,,0.00,pywws,2013-02-27 01:14:00,
2013-02-26 17:20:00,43.7,32.7,30.25,North,-999,0.0,0.0,65,0.00,,,0.00,pywws,2013-02-27 01:20:00,
2013-02-26 17:26:00,43.7,32.7,30.25,East,90,0.7,1.6,65,0.00,,,0.00,pywws,2013-02-27 01:26:00,
2013-02-26 17:31:00,43.7,32.7,30.25,North,-999,0.0,0.0,65,0.00,,,0.00,pywws,2013-02-27 01:31:00,
2013-02-26 17:37:00,43.5,32.5,30.25,East,90,0.7,2.2,65,0.00,,,0.00,pywws,2013-02-27 01:37:00,
2013-02-26 17:42:00,43.3,32.4,30.25,North,0,0.7,3.1,65,0.00,,,0.00,pywws,2013-02-27 01:42:00,
2013-02-26 17:48:00,43.5,32.2,30.25,North,-999,0.0,0.0,64,0.00,,,0.00,pywws,2013-02-27 01:48:00,
2013-02-26 17:54:00,43.0,32.8,30.25,North,-999,0.0,0.0,67,0.00,,,0.00,pywws,2013-02-27 01:54:00,
2013-02-26 17:59:00,42.8,32.6,30.25,North,-999,0.0,1.6,67,0.00,,,0.00,pywws,2013-02-27 01:59:00,
2013-02-26 18:05:00,42.8,32.6,30.25,North,-999,0.0,1.6,67,0.00,,,0.00,pywws,2013-02-27 02:05:00,
2013-02-26 18:10:00,42.3,33.9,30.24,North,-999,0.0,0.0,72,0.00,,,0.00,pywws,2013-02-27 02:10:00,
2013-02-26 18:17:00,42.4,33.7,30.24,North,-999,0.0,0.0,71,0.00,,,0.00,pywws,2013-02-27 02:17:00,
2013-02-26 18:22:00,42.3,33.5,30.24,North,-999,0.0,1.6,71,0.00,,,0.00,pywws,2013-02-27 02:22:00,
2013-02-26 18:27:00,42.3,34.2,30.24,North,-999,0.0,0.0,73,0.00,,,0.00,pywws,2013-02-27 02:27:00,
2013-02-26 18:33:00,42.1,34.1,30.24,North,-999,0.0,0.0,73,0.00,,,0.00,pywws,2013-02-27 02:33:00,
2013-02-26 18:38:00,42.1,33.7,30.24,North,-999,0.0,0.0,72,0.00,,,0.00,pywws,2013-02-27 02:38:00,
2013-02-26 18:44:00,42.3,33.5,30.24,North,-999,0.0,0.0,71,0.00,,,0.00,pywws,2013-02-27 02:44:00,
2013-02-26 18:50:00,42.1,34.1,30.24,North,-999,0.0,0.0,73,0.00,,,0.00,pywws,2013-02-27 02:50:00,
2013-02-26 18:55:00,42.1,34.1,30.24,North,-999,0.0,0.0,73,0.00,,,0.00,pywws,2013-02-27 02:55:00,
2013-02-26 19:01:00,42.3,33.9,30.24,North,-999,0.0,0.0,72,0.00,,,0.00,pywws,2013-02-27 03:01:00,
2013-02-26 19:06:00,42.4,33.7,30.24,North,-999,0.0,0.0,71,0.00,,,0.00,pywws,2013-02-27 03:06:00,
2013-02-26 19:12:00,42.6,33.2,30.24,East,90,0.7,1.6,69,0.00,,,0.00,pywws,2013-02-27 03:12:00,
2013-02-26 19:18:00,42.3,34.2,30.24,North,-999,0.0,0.0,73,0.00,,,0.00,pywws,2013-02-27 03:18:00,
2013-02-26 19:23:00,42.3,33.9,30.24,North,-999,0.0,0.0,72,0.00,,,0.00,pywws,2013-02-27 03:23:00,
2013-02-26 19:29:00,42.4,33.7,30.24,North,-999,0.0,0.0,71,0.00,,,0.00,pywws,2013-02-27 03:29:00,
2013-02-26 19:34:00,42.4,33.7,30.24,North,-999,0.0,0.0,71,0.00,,,0.00,pywws,2013-02-27 03:34:00,
2013-02-26 19:40:00,42.4,33.4,30.24,North,-999,0.0,0.0,70,0.00,,,0.00,pywws,2013-02-27 03:40:00,
2013-02-26 19:46:00,42.3,33.5,30.23,North,-999,0.0,1.6,71,0.00,,,0.00,pywws,2013-02-27 03:46:00,
2013-02-26 19:51:00,41.7,33.7,30.24,North,-999,0.0,0.0,73,0.00,,,0.00,pywws,2013-02-27 03:51:00,
2013-02-26 19:57:00,41.7,33.7,30.24,East,90,1.6,3.1,73,0.00,,,0.00,pywws,2013-02-27 03:57:00,
2013-02-26 20:02:00,41.4,33.7,30.23,SW,225,2.2,3.8,74,0.00,,,0.00,pywws,2013-02-27 04:02:00,
2013-02-26 20:08:00,41.2,34.2,30.24,North,-999,0.0,0.0,76,0.00,,,0.00,pywws,2013-02-27 04:08:00,
2013-02-26 20:14:00,41.2,34.2,30.23,North,-999,0.0,0.0,76,0.00,,,0.00,pywws,2013-02-27 04:14:00,
2013-02-26 20:19:00,41.2,34.5,30.24,North,-999,0.0,0.0,77,0.00,,,0.00,pywws,2013-02-27 04:19:00,
2013-02-26 20:25:00,41.2,34.2,30.24,North,-999,0.0,0.0,76,0.00,,,0.00,pywws,2013-02-27 04:25:00,
2013-02-26 20:30:00,41.5,34.2,30.23,East,90,1.6,2.2,75,0.00,,,0.00,pywws,2013-02-27 04:30:00,
2013-02-26 20:36:00,41.4,34.0,30.23,North,-999,0.0,0.0,75,0.00,,,0.00,pywws,2013-02-27 04:36:00,
2013-02-26 20:42:00,41.7,34.4,30.23,North,-999,0.0,1.6,75,0.00,,,0.00,pywws,2013-02-27 04:42:00,
2013-02-26 20:47:00,41.4,34.0,30.23,North,-999,0.0,0.0,75,0.00,,,0.00,pywws,2013-02-27 04:47:00,
2013-02-26 20:53:00,41.5,34.2,30.23,North,-999,0.0,0.0,75,0.00,,,0.00,pywws,2013-02-27 04:53:00,
2013-02-26 20:59:00,41.5,34.2,30.23,North,-999,0.0,0.0,75,0.00,,,0.00,pywws,2013-02-27 04:59:00,
2013-02-26 21:00:00,41.4,34.0,30.23,North,-999,0.0,0.0,75,0.00,,,0.00,pywws,2013-02-27 05:00:00,
2013-02-26 21:04:00,41.7,34.1,30.23,North,-999,0.0,0.0,74,0.00,,,0.00,pywws,2013-02-27 05:04:00,
2013-02-26 21:09:00,41.5,34.2,30.23,North,-999,0.0,0.7,75,0.00,,,0.00,pywws,2013-02-27 05:09:00,
2013-02-26 21:14:00,42.1,34.1,30.23,East,90,1.6,2.2,73,0.00,,,0.00,pywws,2013-02-27 05:14:00,
2013-02-26 21:20:00,42.1,33.7,30.23,East,90,1.6,2.2,72,0.00,,,0.00,pywws,2013-02-27 05:20:00,
2013-02-26 21:23:00,42.1,34.1,30.23,North,-999,0.0,0.0,73,0.00,,,0.00,pywws,2013-02-27 05:23:00,
2013-02-26 21:29:00,41.9,33.9,30.22,North,-999,0.0,0.0,73,0.00,,,0.00,pywws,2013-02-27 05:29:00,
2013-02-26 21:34:00,42.1,34.4,30.22,East,90,1.6,2.2,74,0.00,,,0.00,pywws,2013-02-27 05:34:00,
2013-02-26 21:40:00,41.9,34.2,30.23,North,-999,0.0,1.6,74,0.00,,,0.00,pywws,2013-02-27 05:40:00,
2013-02-26 21:46:00,41.7,34.1,30.23,North,-999,0.0,0.0,74,0.00,,,0.00,pywws,2013-02-27 05:46:00,
2013-02-26 21:51:00,41.9,34.2,30.23,North,-999,0.0,0.0,74,0.00,,,0.00,pywws,2013-02-27 05:51:00,
2013-02-26 21:57:00,41.5,34.2,30.23,North,-999,0.0,0.0,75,0.00,,,0.00,pywws,2013-02-27 05:57:00,
2013-02-26 22:03:00,41.5,34.5,30.23,SE,135,0.7,2.2,76,0.00,,,0.00,pywws,2013-02-27 06:03:00,
2013-02-26 22:08:00,41.5,34.2,30.23,North,0,0.7,2.2,75,0.00,,,0.00,pywws,2013-02-27 06:08:00,
2013-02-26 22:14:00,41.5,34.5,30.23,North,-999,0.0,0.0,76,0.00,,,0.00,pywws,2013-02-27 06:14:00,
2013-02-26 22:19:00,41.5,34.5,30.22,North,-999,0.0,0.0,76,0.00,,,0.00,pywws,2013-02-27 06:19:00,
2013-02-26 22:25:00,41.5,34.2,30.22,North,-999,0.0,0.0,75,0.00,,,0.00,pywws,2013-02-27 06:25:00,
2013-02-26 22:30:00,41.5,34.2,30.22,North,-999,0.0,1.6,75,0.00,,,0.00,pywws,2013-02-27 06:30:00,
2013-02-26 22:36:00,41.9,34.2,30.22,North,-999,0.0,0.0,74,0.00,,,0.00,pywws,2013-02-27 06:36:00,
2013-02-26 22:42:00,41.9,34.6,30.22,North,-999,0.0,0.0,75,0.00,,,0.00,pywws,2013-02-27 06:42:00,
2013-02-26 22:47:00,41.5,34.2,30.21,North,-999,0.0,0.0,75,0.00,,,0.00,pywws,2013-02-27 06:47:00,
2013-02-26 22:53:00,42.1,34.7,30.22,North,-999,0.0,0.0,75,0.00,,,0.00,pywws,2013-02-27 06:53:00,
2013-02-26 22:58:00,42.4,34.4,30.22,East,90,0.7,1.6,73,0.00,,,0.00,pywws,2013-02-27 06:58:00,
2013-02-26 23:04:00,41.9,34.2,30.22,East,90,1.6,3.1,74,0.00,,,0.00,pywws,2013-02-27 07:04:00,
2013-02-26 23:10:00,42.3,34.2,30.23,North,-999,0.0,0.0,73,0.00,,,0.00,pywws,2013-02-27 07:10:00,
2013-02-26 23:15:00,41.7,34.4,30.22,East,90,1.6,2.2,75,0.00,,,0.00,pywws,2013-02-27 07:15:00,
2013-02-26 23:21:00,41.7,34.7,30.22,North,-999,0.0,0.0,76,0.00,,,0.00,pywws,2013-02-27 07:21:00,
2013-02-26 23:26:00,41.2,34.9,30.22,North,-999,0.0,1.6,78,0.00,,,0.00,pywws,2013-02-27 07:26:00,
2013-02-26 23:32:00,41.2,34.9,30.22,North,-999,0.0,0.0,78,0.00,,,0.00,pywws,2013-02-27 07:32:00,
2013-02-26 23:38:00,41.4,35.0,30.22,North,-999,0.0,0.0,78,0.00,,,0.00,pywws,2013-02-27 07:38:00,
2013-02-26 23:43:00,41.2,35.2,30.22,East,90,0.7,1.6,79,0.00,,,0.00,pywws,2013-02-27 07:43:00,
2013-02-26 23:49:00,41.4,35.3,30.22,North,-999,0.0,0.0,79,0.00,,,0.00,pywws,2013-02-27 07:49:00,
2013-02-26 23:54:00,41.5,35.5,30.22,North,-999,0.0,0.0,79,0.00,,,0.00,pywws,2013-02-27 07:54:00,